This is the latest recevied weather packets stored in our database for station/object KQ4OSL. If no packets are shown the sender has not sent any weather packets the latest 10 day(s).
| Time | Temp. | Humidity | Pressure | Rain* | Wind** | Luminosity | Snow |
|---|---|---|---|---|---|---|---|
| 1787860994 | 30° C | 75% | 1016.5 hPa | 0 mm | - | 384 W/m² | - |
| 1787860694 | 29.44° C | 76% | 1017 hPa | 0 mm | - | 445 W/m² | - |
| 1787860389 | 28.89° C | 75% | 1016.8 hPa | 0 mm | - | 207 W/m² | - |
| 1787860089 | 28.89° C | 74% | 1016.9 hPa | 0 mm | - | 139 W/m² | - |
| 1787859785 | 29.44° C | 75% | 1016.8 hPa | 0 mm | - | 135 W/m² | - |
| 1787859485 | 30.56° C | 73% | 1016.9 hPa | 0 mm | - | 249 W/m² | - |
| 1787859184 | 31.67° C | 68% | 1016.9 hPa | 0 mm | - | 707 W/m² | - |
| 1787858881 | 31.11° C | 70% | 1016.9 hPa | 0 mm | - | 507 W/m² | - |
| 1787858576 | 30.56° C | 71% | 1017.1 hPa | 0 mm | - | 660 W/m² | - |
| 1787858276 | 29.44° C | 74% | 1016.9 hPa | 0 mm | - | 575 W/m² | - |
| 1787857972 | 30° C | 74% | 1016.9 hPa | 0 mm | - | 176 W/m² | - |
| 1787857667 | 30° C | 75% | 1017 hPa | 0 mm | - | 661 W/m² | - |
| 1787857363 | 29.44° C | 78% | 1017.2 hPa | 0 mm | - | 654 W/m² | - |
| 1787857061 | 29.44° C | 72% | 1017.2 hPa | 0 mm | - | 580 W/m² | - |
| 1787856756 | 29.44° C | 72% | 1017.3 hPa | 0 mm | - | 452 W/m² | - |
| 1787856450 | 30.56° C | 72% | 1017.6 hPa | 0 mm | - | 555 W/m² | - |
| 1787856146 | 29.44° C | 73% | 1017.5 hPa | 0 mm | - | 609 W/m² | - |
| 1787855840 | 30° C | 73% | 1017.3 hPa | 0 mm | - | 469 W/m² | - |
| 1787855535 | 30° C | 74% | 1017.5 hPa | 0 mm | - | 716 W/m² | - |
| 1787855231 | 29.44° C | 72% | 1017.6 hPa | 0 mm | - | 716 W/m² | - |
| 1787854927 | 28.89° C | 77% | 1017.5 hPa | 0 mm | - | 384 W/m² | - |
| 1787854627 | 29.44° C | 76% | 1017.6 hPa | 0 mm | - | 547 W/m² | - |
| 1787854321 | 29.44° C | 78% | 1017.7 hPa | 0 mm | - | 501 W/m² | - |
| 1787854016 | 30° C | 78% | 1017.6 hPa | 0 mm | - | 781 W/m² | - |
| 1787853716 | 29.44° C | 77% | 1017.8 hPa | 0 mm | - | 518 W/m² | - |
* Rain latest hour (hover to see other rain measurements)
** Current wind speed in m/s (hover to see current wind gust speed)